Regional Weather Roundup
Issued by NWS

Home | Current Version | Previous Version | Text Only | Print | Product List | Glossary On
Versions: 1 2 3 4 5 6 7 8 9 10 11 12 13 14 15 16 17 18 19 20 21 22 23 24 25 26 27 28 29 30 31 32 33 34 35 36 37 38 39 40 41 42 43 44 45 46 47 48 49 50
000
ASUS45 KCYS 012110
RWRWY

WYOMING REGIONAL WEATHER ROUNDUP
NATIONAL WEATHER SERVICE CHEYENNE WY
300 PM MDT SAT AUG 01 2015

NOTE:  "FAIR" INDICATES FEW OR NO CLOUDS BELOW 12,000 FEET
WITH NO SIGNIFICANT WEATHER AND/OR OBSTRUCTIONS TO VISIBILITY.

WYZ001-012200-
YELLOWSTONE NATIONAL PARK

CITY           SKY/WX    TMP DP  RH WIND       PRES   REMARKS
LK YELLOWSTONE   N/A     75  37  25 MISG      30.38F
W YELLOWSTONE  NOT AVBL

$$
WYZ002>013-054>058-071-098>099-012200-
NORTHERN WYOMING

CITY           SKY/WX    TMP DP  RH WIND       PRES   REMARKS
JACKSON        SUNNY     82  27  13 VRB6      30.25F
CODY           FAIR      88  34  14 NE15      30.10F
GREYBULL       FAIR      96  23   7 SE7       30.01F HX  90
WORLAND        FAIR      94  27   9 NE8       30.04F
SHERIDAN       FAIR      97  27   8 N10       30.01F HX  91
BUFFALO        FAIR      91  29  11 NW6       30.10F
GILLETTE       FAIR      93  25   8 MISG      30.04F
HULETT         FAIR      90  30  12 CALM      30.05F
NEWCASTLE      FAIR      91  27   9 NW18G25   30.03F

$$
WYZ014>020-022>026-101>103-012200-
CENTRAL WYOMING

CITY           SKY/WX    TMP DP  RH WIND       PRES   REMARKS
BIG PINEY      FAIR      85  20   9 NW9G16    30.28F
PINEDALE       FAIR      81  27  13 NW10G17   30.29S
DUBOIS         FAIR      82  21  10 NW8G18    30.27F
LANDER         FAIR      91  32  12 N10       30.12F
RIVERTON       FAIR      89  29  11 E10       30.14F
CASPER         FAIR      91  26   9 VRB6      30.12F
DOUGLAS        FAIR      94  32  11 N8        30.09F

$$
WYZ021-027>030-104>119-012200-
SOUTHERN WYOMING

CITY           SKY/WX    TMP DP  RH WIND       PRES   REMARKS
EVANSTON       FAIR      83  23  11 VRB6G18   30.29F
KEMMERER       FAIR     N/A N/A N/A NW8       30.29F
FORT BRIDGER   CLEAR     84  23  10 NW5       30.29F
ROCK SPRINGS   FAIR      85  26  11 W8        30.24F
DIXON          FAIR      89  24   9 W10       30.23F
RAWLINS        FAIR      88  24  10 W8        30.23F
SARATOGA       FAIR      88  27  11 W9G17     30.25F
LARAMIE        FAIR      82  32  16 NW6       30.25F
CHEYENNE       FAIR      86  40  19 NE15G24   30.16F
TORRINGTON     FAIR      95  44  17 VRB5      29.99F HX  91
PINE BLUFFS    FAIR      88  41  19 NE13G22   30.10F

$$


USA.gov is the U.S. government's official web portal to all federal, state and local government web resources and services.